DMSP 5D-2 F11 DEB, 28321

Orbit data source: Space-Track

DMSP 5D-2 F11 DEB, 28321 is space debris in SSO originally from a launch on Thu, 28 Nov 1991 UTC launched from the Air Force Western Test Range (AFWTR). Debris objects in space refer to the collection of defunct objects orbiting the Earth. Examples of debris include non-operational satellites, rocket bodies, and fragments generated from explosions, collisions, or faulty payload assembly.

Loading next visibility...
Identifier
28321, 1991-082AJ
Orbit
SSO
Country
Flag of USUS
Related business
Manufacturer
Unknown
Mission
Spacecraft
Bus & Motor
Unknown
Mass
Unknown
Launch date (UTC)
1991-11-28 (34 years ago)
Launch vehicle
Unknown
Launch site
Air Force Western Test Range (AFWTR)
Object type
Payload
Rocket body
Debris
Shape & HBR
Unknown shape, 0.1 m
Radar Cross Section
Small (<0.1 m²)

Expand to show TLE details & history
Last TLE update: 20 hours ago

TLE from 20 hours ago
0 DMSP 5D-2 F11 DEB
1 28321U 91082AJ  25349.77767509  .00033471  00000-0  30582-2 0  9995
2 28321  98.5283  97.8689 0002287 183.0871 328.3065 14.94941093130350
Epoch: 2025-12-15T18:39Z
TLE epoch observation values (Epoch: 2025-12-15T18:39:51.127Z)
Latitude
28.32136°
Longitude
-82.15542°
Altitude
584.771 km
Speed
7.571 km/s
True Right ascension
18h 49m 54s
True Declination
28° 10' 28"
Sunlit
Object was in daylight at epoch
Visualization orbit readout
Latitude
Unknown
Longitude
Unknown
Altitude
Unknown
Speed
Unknown
Apparent Right ascension
Unknown
Apparent Declination
Unknown
Sunlit
N/A
Visualization observer readout
Local Sidereal Time
12:53:01
Azimuth
Unknown
Elevation
Unknown
Doppler factor
Unknown
Orbital elements
Apogee altitude
581.197 km
Perigee altitude
578.015 km
Semi-major axis
6,957.743 km
Eccentricity
0.00023
Inclination
98.5283°
RAAN
97.8689°
Arg. of periapsis
183.0871°
True anomaly
328.29273°
Mean anomaly
328.3065°
Eccentric anomaly
328.29961°
Mean motion
3.73973 °/min
Orbital period
96.26 mins
BSTAR
0.0030582
Loading maneuver chart data...
Computing Atmospheric mass density...

Documentation

Showing up to 5 results
|